Terug naar catalogus

SL-12 R/B(2)

ActiefGEO
NORAD 19777·ROCKET BODY·🇷🇺 Russia

Gelanceerd Oct 20, 1988 vanaf Baikonur Cosmodrome

Loading…

TLE

VersSource: Space-Track

Epoch: Sep 13, 2026, 16:02 UTC

1 19777U 88095F   26256.66858090 -.00000080  00000-0  00000-0 0  9993
2 19777  12.6254 333.1770 0016741 268.0274  93.2379  0.97937211123160

Volg SL-12 R/B(2) in realtime met AllMySat

Download on the App Store